Miami, FL

10:03 AM EDT am 23. Juni 2017 (GMT -0400)
Miami International

Wetter Verlauf für KMIA - Januar, 2017

Change the Weather History Date:

Mittwoch, Januar 11, 2017

  Actual Average Record
Temperature  
mittlereTemperatur 73 °F 68 °F  
Max. Temperatur 79 °F 76 °F 84 °F (2000)
Min.Temperatur 67 °F 60 °F 36 °F (2010)
Degree Days  
Heizgradtage 0 2  
Month to date heating degree days 6 22  
Since 1 July heating degree days 6 59  
Cooling Degree Days 8 5  
Month to date cooling degree days 93 55  
Year to date cooling degree days 93 55  
Growing Degree Days 22 (Base 50)    
Moisture  
Taupunkt 60 °F    
Average Humidity 66    
Maximum Humidity 87    
Minimum Humidity 45    
Niederschlag  
Niederschlag 0.03 inch 0.05 inch 2.40 inch (1973)
Month to date precipitation 1.48 0.56  
Year to date precipitation 1.48 0.56  
Schneefall  
Schneefall 0.00 inch - - ()
Month to date snowfall 0.0  
Since 1 July snowfall 0.0  
Schneehöhe 0.00 inch    
Luftdruck in Meereshöhe  
Luftdruck in Meereshöhe 30.28 inch    
Wind  
Windgeschwindigkeit 12 mph (Ost)    
Max. Windgeschwindigkeit 22 mph    
Max Gust Speed 27 mph    
Sichtweite 10 Meilen    
Ereignisse Regen    
T = Trace of Precipitation, MM = Missing Value Source: NWS Daily Summary

Daily Weather History Graph

Daily Weather History Graph

Search for Another Location

Airport or City:

Trip Planner

Search our weather history database for the weather conditions in past years. The results will help you decide how hot, cold, wet, or windy it might be!

Date:

Astronomie

Jan. 11, 2017 Aufgang Untergang
Genaue Zeit 07:09 EST 17:49 EST
Bürgerliche Dämmerung 06:44 EST 18:14 EST
Nautische Dämmerung 06:16 EST 18:42 EST
Astronomische Dämmerung 05:48 EST 19:10 EST
Mond 17:18 EST (1/11) 06:06 EST (1/11)
Länge des sichtbaren Lichts 11h 29m
Tageslänge
10h 39m
Zweites Viertel, 99% of the Moon is Illuminated
Jan 11
Zweites Viertel
Jan 12
Vollmond
Jan 19
Letztes Viertel
Jan 27
Neu
Feb 3
Erstes Viertel

Hourly Weather History & Observations

Zeit (EST) Temp. Taupunkt Feuchtigkeit Druck Sichtweite Wind Dir Windgeschwindigkeit Böengeschwindigkeit Precip Ereignisse Wetterzustand
12:53 AM 71.1 °F 59.0 °F 66% 30.30 inch 10.0 mi Ost 13.8 mph - 0.00 inch   Wolkig
1:53 AM 71.1 °F 57.9 °F 63% 30.30 inch 10.0 mi Ost 10.4 mph - N/A   Wolkig
2:53 AM 70.0 °F 57.9 °F 65% 30.30 inch 10.0 mi Ost 10.4 mph - 0.00 inch Regen Leichter Regen
3:53 AM 66.9 °F 57.0 °F 70% 30.29 inch 10.0 mi Ost 8.1 mph - 0.00 inch   Wolkig
4:53 AM 68.0 °F 60.1 °F 76% 30.29 inch 7.0 mi Ost 12.7 mph - 0.01 inch Regen Leichter Regen
5:53 AM 66.9 °F 62.1 °F 84% 30.30 inch 10.0 mi Ruhig Ruhig - 0.00 inch   Bedeckt
6:53 AM 66.9 °F 62.1 °F 84% 30.30 inch 10.0 mi Nord-Nordost 5.8 mph - 0.01 inch   Wolkig
7:53 AM 69.1 °F 61.0 °F 75% 30.31 inch 10.0 mi Ost 13.8 mph - 0.00 inch   Wolkig
8:53 AM 73.9 °F 62.1 °F 66% 30.32 inch 10.0 mi Ost-Nordost 12.7 mph 18.4 mph 0.00 inch   Wolkig
9:53 AM 75.9 °F 61.0 °F 60% 30.33 inch 10.0 mi Ost 15.0 mph - N/A   Wolkig
10:53 AM 75.0 °F 59.0 °F 57% 30.32 inch 10.0 mi Ost-Nordost 13.8 mph 24.2 mph N/A   Wolkig
11:53 AM 79.0 °F 55.9 °F 45% 30.30 inch 10.0 mi Ost 19.6 mph - N/A   Teils Wolkig
12:53 PM 78.1 °F 57.0 °F 48% 30.27 inch 10.0 mi Ost 16.1 mph 26.5 mph N/A   Teils Wolkig
1:53 PM 78.1 °F 59.0 °F 52% 30.26 inch 10.0 mi Ost 18.4 mph 25.3 mph N/A   Wolkig
2:53 PM 77.0 °F 60.1 °F 56% 30.25 inch 10.0 mi Ost 17.3 mph 23.0 mph N/A   Wolkig
3:53 PM 75.9 °F 59.0 °F 56% 30.25 inch 10.0 mi Ost-Nordost 15.0 mph - N/A   Wolkig
4:53 PM 75.9 °F 59.0 °F 56% 30.25 inch 10.0 mi Ost-Nordost 11.5 mph - N/A   Wolkig
5:53 PM 73.0 °F 62.1 °F 68% 30.25 inch 10.0 mi Ost-Nordost 10.4 mph - 0.00 inch   Wolkig
6:53 PM 73.0 °F 63.0 °F 71% 30.26 inch 10.0 mi Ost-Nordost 12.7 mph - N/A   Teils Wolkig
7:53 PM 73.0 °F 62.1 °F 68% 30.27 inch 10.0 mi Nordost 5.8 mph - 0.00 inch   Wolkig
8:53 PM 72.0 °F 63.0 °F 73% 30.28 inch 10.0 mi Ost-Südost 11.5 mph 21.9 mph 0.00 inch   Bedeckt
9:53 PM 72.0 °F 63.0 °F 73% 30.28 inch 10.0 mi Ost 15.0 mph - 0.01 inch   Bedeckt
10:53 PM 72.0 °F 63.0 °F 73% 30.27 inch 10.0 mi Ost 10.4 mph - 0.00 inch   Wolkig
11:53 PM 73.0 °F 59.0 °F 61% 30.27 inch 10.0 mi Ost 15.0 mph - N/A   Wolkig